This is the latest recevied weather packets stored in our database for station/object N3WGC-14. If no packets are shown the sender has not sent any weather packets the latest 10 day(s).
| Time | Temp. | Humidity | Pressure | Rain* | Wind** | Luminosity | Snow |
|---|---|---|---|---|---|---|---|
| 1787949327 | 29.44° C | 73% | 1016.2 hPa | 0 mm | - | - | - |
| 1787949026 | 29.44° C | 74% | 1016.2 hPa | 0 mm | - | - | - |
| 1787948726 | 28.89° C | 74% | 1016 hPa | 0 mm | - | - | - |
| 1787948426 | 28.89° C | 74% | 1015.9 hPa | 0 mm | - | - | - |
| 1787948126 | 28.89° C | 74% | 1015.9 hPa | 0 mm | - | - | - |
| 1787947826 | 28.89° C | 74% | 1015.9 hPa | 0 mm | - | - | - |
| 1787947526 | 28.89° C | 78% | 1016.1 hPa | 0 mm | - | - | - |
| 1787947226 | 28.89° C | 75% | 1016.1 hPa | 0 mm | - | - | - |
| 1787946925 | 28.89° C | 76% | 1016.1 hPa | 0 mm | - | - | - |
| 1787946625 | 28.89° C | 75% | 1016.1 hPa | 0 mm | - | - | - |
| 1787946325 | 28.89° C | 77% | 1016.2 hPa | 0 mm | - | - | - |
| 1787946025 | 28.89° C | 75% | 1016.1 hPa | 0 mm | - | - | - |
| 1787945725 | 28.89° C | 77% | 1016.1 hPa | 0 mm | - | - | - |
| 1787945425 | 28.89° C | 75% | 1016.1 hPa | 0 mm | - | - | - |
| 1787945125 | 28.89° C | 77% | 1016.1 hPa | 0 mm | - | - | - |
| 1787944824 | 28.89° C | 78% | 1016.1 hPa | 0 mm | - | - | - |
| 1787944524 | 28.89° C | 77% | 1016.2 hPa | 0 mm | - | - | - |
| 1787944224 | 28.89° C | 77% | 1016.3 hPa | 0 mm | - | - | - |
| 1787943924 | 28.33° C | 78% | 1016.3 hPa | 0 mm | - | - | - |
| 1787943624 | 28.33° C | 77% | 1016.3 hPa | 0 mm | - | - | - |
| 1787943324 | 28.89° C | 77% | 1016.3 hPa | 0 mm | - | - | - |
| 1787943023 | 28.89° C | 80% | 1016.2 hPa | 0 mm | - | - | - |
| 1787942723 | 28.33° C | 80% | 1016.2 hPa | 0 mm | - | - | - |
| 1787942423 | 28.89° C | 78% | 1016.3 hPa | 0 mm | - | - | - |
| 1787942123 | 28.33° C | 82% | 1016.2 hPa | 0 mm | - | - | - |
* Rain latest hour (hover to see other rain measurements)
** Current wind speed in m/s (hover to see current wind gust speed)